FENGYUN 1C DEB

Satellite information

Favourite Embed

Satellite Type and Status

DEBRISIN ORBIT

Key statistics

Satellite FENGYUN 1C DEB at a glance.

Uptime

9664

Days in orbit

Revolutions

≈ 14.3

Per day

Orbit

SSO

Sun Synchronous Orbit

Inclination

99.2

Latest

Satellite identification and parameters

Extended collection of information and parameters for FENGYUN 1C DEB.

Object identification

Identified? True

Debris? True

Object name: FENGYUN 1C DEB

International designator: 1999-025ABC

Object number (NORAD): 30341

Object ID (CCSDS): 30341

Country: PEOPLES REPUBLIC OF CHINA (PRC)

Current information (Y/N): Y

RCS size: SMALL

Orbital parameters

Period: 100.487 minutes

Inclination: 99.2168 deg

SMA: 7159.799 km

Apoapsis: 814.823 km

Periapsis: 748.504 km

RAAN: 181.4842 deg

Eccentricy: 0.0046314

Argument of periapsis: 207.8886 deg

Mean anomaly: 214.4219 deg

Mean motion: 14.3301771 rev/day

Mean motion (dot): 0.00007752 rev/day2

B* drag term: 0.0028125503 1/REarth

Two-line elements (TLE)

Creation date: Oct. 24, 2025, 2:48 a.m.

Reference frame: TEME

Reference center: EARTH

Epoch: Oct. 23, 2025, 4:24 p.m. UTC

TLE line 0: 0 FENGYUN 1C DEB

TLE line 1: 1 30341U 99025ABC 25296.68337135 .00007752 00000-0 28126-2 0 9998

TLE line 2: 2 30341 99.2168 181.4842 0046314 207.8886 214.4219 14.33017710963641

Live tracking on map

Real-time ground track for satellite FENGYUN 1C DEB.

In-orbit conjunctions

A list of the most updated potential collisions computed for object FENGYUN 1C DEB.

Target Orbit TCA Probability of collision Miss distance Type
IRIDIUM 69 LEO 2025-07-31 18:47:43 0.000319504 891.0 (m) PAYLOAD
CZ-6A DEB LEO 2024-11-11 05:05:30 0.0001371392 164.0 (m) DEBRIS
CZ-6A DEB LEO 2024-10-14 19:42:37 0.0001390691 182.0 (m) DEBRIS

Associated space launch

Chinese polar orbiting meteorological satellite

FENGYUN 1C DEB was lifted into orbit during the mission ‘Long March 4B | Feng Yun 1C’, on board a Long March 4B space rocket.

The launch took place on May 10, 1999, 1:33 a.m. from Launch Complex 7.

For more information about the launch, click the button.

Launch to space Long March 4B | Feng Yun 1C
Long March 4B | Feng Yun 1C

Agency: N/A

Status: Launch Successful

Launch date: May 10, 1999, 1:33 a.m. UTC

Rocket: Long March 4B

Launch pad: Launch Complex 7

Location: Taiyuan Satellite Launch Center, People's Republic of China

...

Latest news about this satellite

There are no fresh news available about this satellite. Check back as we update our databases every day.


Newsletter sign-up

Weekly statistics, charts and insights to help you stay on top of the space industry.